Regional Weather Roundup
Issued by NWS

Home | Current Version | Previous Version | Graphics & Text | Print | Product List | Glossary On
Versions: 1 2 3 4 5 6 7 8 9 10 11 12 13 14 15 16 17 18 19 20 21 22 23 24 25 26 27 28 29 30 31 32 33 34 35 36 37 38 39 40 41 42 43 44 45 46 47 48 49 50
000
ASUS44 KMEG 291710
RWRTN
TENNESSEE HOURLY STATE WEATHER ROUNDUP
NATIONAL WEATHER SERVICE MEMPHIS TN
1200 PM CDT FRI MAY 29 2015

TNZ002-004-019-021-049-052-054-088>092-291800-
WEST TENNESSEE

CITY           SKY/WX    TMP DP  RH WIND       PRES   REMARKS
MEMPHIS INTL   PTSUNNY   82  70  65 S12       30.09F
NWS MEMPHIS      N/A     82 N/A N/A MISG        N/A
JACKSON        CLOUDY    78  69  73 S7        30.12F
DYERSBURG      CLOUDY    79  61  53 SE10      30.10F
PARIS          MOSUNNY   77  66  69 S10       30.13S
LEXINGTON      CLOUDY    72  66  83 S6        30.14F
$$

TNZ008-025-027-028-033-062-065-066-291800-
NORTH MIDDLE TENNESSEE

CITY           SKY/WX    TMP DP  RH WIND       PRES   REMARKS
NASHVILLE      CLOUDY    77  67  71 S9        30.18F
CLARKSVILLE    PTSUNNY   78  67  68 S13       30.14F
SMYRNA         PTSUNNY   77  68  73 S10       30.18F
COOKEVILLE     PTSUNNY   79  70  73 SW7       30.20F
CROSSVILLE     CLOUDY    73  63  70 S9        30.26S
$$

TNZ061-075-076-078-094-096-097-291800-
SOUTH MIDDLE TENNESSEE

CITY           SKY/WX    TMP DP  RH WIND       PRES   REMARKS
FAYETTEVILLE   PTSUNNY  N/A N/A N/A MISG      30.20S
TULLAHOMA      PTSUNNY   75  64  69 S5        30.21F
WINCHESTER     CLOUDY    73  68  83 VRB7      30.20F
MCMINNVILLE    MOSUNNY   81  70  69 VRB6      30.20F
COLUMBIA       PTSUNNY   79  72  78 SE9       30.15F
SHELBYVILLE    CLOUDY    75  72  88 S6        30.20F
$$

TNZ017-018-042-046-047-291800-
NORTHEAST TENNESSEE

CITY           SKY/WX    TMP DP  RH WIND       PRES   REMARKS
TRI CITIES     PTSUNNY   83  60  45 VRB6      30.24F
ELIZABETHTON   LGT RAIN  72  64  78 VRB3      30.26S
$$

TNZ012-013-036-069-073-074-291800-
CENTRAL EAST TENNESSEE

CITY           SKY/WX    TMP DP  RH WIND       PRES   REMARKS
KNOXVILLE      PTSUNNY   84  62  47 SW8       30.20F
OAK RIDGE      MOSUNNY   83  63  50 SW7       30.22F
GATLINBURG       N/A     82  64  54 VRB6      30.20F
MORRISTOWN     MOSUNNY   81  63  54 E7        30.24S
$$

TNZ083-085-099-291800-
SOUTHEAST TENNESSEE

CITY           SKY/WX    TMP DP  RH WIND       PRES   REMARKS
CHATTANOOGA    PTSUNNY   80  66  62 VRB7      30.21F
$$

SKY/WX REPORTED AS FAIR MEANS FEW OR NO CLOUDS BELOW
12 THOUSAND FEET.




USA.gov is the U.S. government's official web portal to all federal, state and local government web resources and services.